User: anonymous   Login
Location: Unspecified
(0.0000°N, 0.0000°E)
Time: 05:46:52
(UTC+00:00)
Language:

STARLINK-4727 - Orbit

View from above orbital plane
View from above orbital plane
View from above satellite
View from above satellite

Ground track
Ground track

The orbit is defined by the following mean orbital elements,

1 53803U          26145.04809462 +.00000000 +00000-0 +30674-4 0 00007
2 53803  53.2165 266.3768 0000762  94.4692 265.6387 15.08836883    07
Epoch (UTC): 25 May 2026 01:09:15
Eccentricity: 0.0000762
inclination: 53.2165°
perigee height: 539 km
apogee height: 540 km
right ascension of ascending node: 266.3768°
argument of perigee: 94.4692°
revolutions per day: 15.08836883
mean anomaly at epoch: 265.6387°

The dashed part of the orbit path shows where the satellite is in the earth's shadow,  

DLR